When you browse on this site, cookies collect data to enhance your experience and personalize the content and advertising you see.
Visit our Privacy Policy to learn more. By continuing to use the site, you agree to this use of cookies and data.
  • In Hungary
  • List of Countries
  • For 7 days
  • Water Temperature
  • Weather Map
  • News
  • Weather Widgets
  • user-avatar
    Login

    Hourly Weather Bocki

    Today, 22 September, Sunday

    Time Temperature Precipitation Wind Pressure Humidity
    00:00 +12°C° 0 mm 4 mps 751 mmHg 85%
    01:00 +11°C° 0 mm 4 mps 751 mmHg 89%
    02:00 +10°C° 0 mm 3 mps 751 mmHg 93%
    03:00 +9°C° 0 mm 3 mps 751 mmHg 94%
    04:00 +9°C° 0 mm 3 mps 750 mmHg 96%
    05:00 +8°C° 0 mm 3 mps 750 mmHg 97%
    06:00 +9°C° 0 mm 3 mps 750 mmHg 94%
    07:00 +9°C° 0 mm 3 mps 750 mmHg 92%
    08:00 +10°C° 0 mm 3 mps 751 mmHg 88%
    09:00 +12°C° 0 mm 3 mps 750 mmHg 81%
    10:00 +14°C° 0 mm 3 mps 750 mmHg 73%
    11:00 +17°C° 0 mm 3 mps 750 mmHg 65%
    12:00 +18°C° 0 mm 3 mps 750 mmHg 62%
    13:00 +19°C° 0 mm 4 mps 749 mmHg 58%
    14:00 +20°C° 0 mm 4 mps 749 mmHg 55%
    15:00 +20°C° 0 mm 3 mps 748 mmHg 57%
    16:00 +19°C° 0 mm 3 mps 748 mmHg 58%
    17:00 +19°C° 0 mm 3 mps 747 mmHg 60%
    18:00 +17°C° 0 mm 3 mps 747 mmHg 66%
    19:00 +16°C° 0 mm 2 mps 748 mmHg 72%
    20:00 +14°C° 0 mm 2 mps 748 mmHg 77%
    21:00 +13°C° 0 mm 2 mps 748 mmHg 82%
    22:00 +13°C° 0 mm 2 mps 748 mmHg 86%
    23:00 +12°C° 0 mm 2 mps 749 mmHg 90%

    Tomorrow, 23 September, Monday

    Time Temperature Precipitation Wind Pressure Humidity
    00:00 +11°C° 0 mm 3 mps 749 mmHg 90%
    01:00 +10°C° 0 mm 3 mps 749 mmHg 91%
    02:00 +10°C° 0 mm 4 mps 750 mmHg 91%
    03:00 +8°C° 0 mm 4 mps 750 mmHg 87%
    04:00 +8°C° 0 mm 4 mps 750 mmHg 82%
    05:00 +7°C° 0 mm 4 mps 750 mmHg 77%
    06:00 +7°C° 0 mm 5 mps 751 mmHg 76%
    07:00 +7°C° 0 mm 5 mps 751 mmHg 75%
    08:00 +7°C° 0 mm 5 mps 751 mmHg 73%
    09:00 +8°C° 0 mm 5 mps 751 mmHg 69%
    10:00 +9°C° 0 mm 5 mps 752 mmHg 65%
    11:00 +10°C° 0 mm 5 mps 752 mmHg 61%
    12:00 +12°C° 0 mm 5 mps 752 mmHg 58%
    13:00 +13°C° 0 mm 5 mps 752 mmHg 55%
    14:00 +13°C° 0 mm 5 mps 751 mmHg 51%
    15:00 +13°C° 0 mm 4 mps 751 mmHg 52%
    16:00 +13°C° 0 mm 4 mps 751 mmHg 52%
    17:00 +12°C° 0 mm 4 mps 751 mmHg 53%
    18:00 +11°C° 0 mm 4 mps 751 mmHg 57%
    19:00 +8°C° 0 mm 4 mps 751 mmHg 60%
    20:00 +7°C° 0 mm 3 mps 751 mmHg 64%
    21:00 +7°C° 0 mm 3 mps 752 mmHg 64%
    22:00 +5°C° 0 mm 3 mps 752 mmHg 64%
    23:00 +5°C° 0 mm 3 mps 752 mmHg 65%

    Day after tomorrow, 24 September, Tuesday

    Time Temperature Precipitation Wind Pressure Humidity
    00:00 +4°C° 0 mm 3 mps 752 mmHg 65%
    01:00 +4°C° 0 mm 3 mps 752 mmHg 66%
    02:00 +3°C° 0 mm 3 mps 752 mmHg 66%
    03:00 +3°C° 0 mm 3 mps 752 mmHg 67%
    04:00 +3°C° 0 mm 3 mps 751 mmHg 68%
    05:00 +3°C° 0 mm 3 mps 751 mmHg 68%
    06:00 +3°C° 0 mm 3 mps 751 mmHg 65%
    07:00 +4°C° 0 mm 3 mps 751 mmHg 62%
    08:00 +5°C° 0 mm 4 mps 751 mmHg 60%
    09:00 +7°C° 0 mm 4 mps 751 mmHg 56%
    10:00 +10°C° 0 mm 4 mps 751 mmHg 53%
    11:00 +12°C° 0 mm 3 mps 751 mmHg 49%
    12:00 +13°C° 0 mm 3 mps 750 mmHg 48%
    13:00 +14°C° 0 mm 3 mps 750 mmHg 48%
    14:00 +16°C° 0 mm 3 mps 749 mmHg 47%
    15:00 +16°C° 0 mm 2 mps 749 mmHg 49%
    16:00 +16°C° 0 mm 2 mps 749 mmHg 52%
    17:00 +15°C° 0 mm 2 mps 748 mmHg 54%
    18:00 +14°C° 0 mm 2 mps 748 mmHg 59%
    19:00 +11°C° 0 mm 3 mps 748 mmHg 64%
    20:00 +9°C° 0 mm 3 mps 748 mmHg 69%
    21:00 +9°C° 0 mm 3 mps 748 mmHg 70%
    22:00 +8°C° 0 mm 3 mps 748 mmHg 71%
    23:00 +7°C° 0 mm 3 mps 748 mmHg 71%

    25 September, Wednesday

    Time Temperature Precipitation Wind Pressure Humidity
    00:00 +7°C° 0 mm 3 mps 748 mmHg 72%
    01:00 +7°C° 0 mm 3 mps 748 mmHg 72%
    02:00 +7°C° 0 mm 3 mps 748 mmHg 72%
    03:00 +7°C° 0 mm 3 mps 747 mmHg 72%
    04:00 +7°C° 0 mm 3 mps 747 mmHg 72%
    05:00 +7°C° 0 mm 3 mps 747 mmHg 72%
    06:00 +7°C° 0 mm 3 mps 747 mmHg 69%
    07:00 +8°C° 0 mm 3 mps 746 mmHg 66%
    08:00 +8°C° 0 mm 4 mps 746 mmHg 64%
    09:00 +10°C° 0 mm 4 mps 746 mmHg 61%
    10:00 +11°C° 0 mm 4 mps 746 mmHg 59%
    11:00 +13°C° 0 mm 4 mps 746 mmHg 57%
    12:00 +14°C° 0 mm 4 mps 746 mmHg 57%
    13:00 +15°C° 0 mm 4 mps 745 mmHg 56%
    14:00 +17°C° 0 mm 4 mps 745 mmHg 56%
    15:00 +17°C° 0 mm 4 mps 745 mmHg 59%
    16:00 +17°C° 0 mm 3 mps 744 mmHg 62%
    17:00 +17°C° 0 mm 3 mps 744 mmHg 65%
    18:00 +16°C° 0 mm 3 mps 744 mmHg 68%
    19:00 +14°C° 0 mm 3 mps 744 mmHg 72%
    20:00 +13°C° 0 mm 3 mps 744 mmHg 75%
    21:00 +13°C° 0.1 mm 3 mps 744 mmHg 79%
    22:00 +14°C° 0.1 mm 2 mps 744 mmHg 82%
    23:00 +14°C° 0.1 mm 2 mps 744 mmHg 85%

    26 September, Thursday

    Time Temperature Precipitation Wind Pressure Humidity
    00:00 +14°C° 0.5 mm 2 mps 744 mmHg 88%
    01:00 +13°C° 0.5 mm 2 mps 743 mmHg 91%
    02:00 +13°C° 0.5 mm 2 mps 743 mmHg 93%
    03:00 +13°C° 0.3 mm 2 mps 743 mmHg 94%
    04:00 +12°C° 0.3 mm 2 mps 743 mmHg 95%
    05:00 +12°C° 0.3 mm 2 mps 743 mmHg 96%
    06:00 +12°C° 0.1 mm 2 mps 744 mmHg 95%
    07:00 +13°C° 0.1 mm 2 mps 744 mmHg 94%
    08:00 +13°C° 0.1 mm 1 mps 744 mmHg 93%
    09:00 +14°C° 0.1 mm 1 mps 744 mmHg 89%
    10:00 +15°C° 0.1 mm 1 mps 745 mmHg 84%
    11:00 +18°C° 0.1 mm 1 mps 745 mmHg 79%
    12:00 +17°C° 0 mm 2 mps 745 mmHg 78%
    13:00 +17°C° 0 mm 2 mps 745 mmHg 77%
    14:00 +18°C° 0 mm 2 mps 745 mmHg 75%
    15:00 +17°C° 0 mm 2 mps 745 mmHg 76%
    16:00 +17°C° 0 mm 2 mps 745 mmHg 77%
    17:00 +17°C° 0 mm 2 mps 746 mmHg 77%
    18:00 +16°C° 0 mm 2 mps 746 mmHg 81%
    19:00 +15°C° 0 mm 2 mps 746 mmHg 86%
    20:00 +13°C° 0 mm 2 mps 747 mmHg 90%
    21:00 +13°C° 0 mm 1 mps 747 mmHg 91%
    22:00 +12°C° 0 mm 1 mps 747 mmHg 93%
    23:00 +11°C° 0 mm 1 mps 748 mmHg 94%

    27 September, Friday

    Time Temperature Precipitation Wind Pressure Humidity
    00:00 +11°C° 0 mm 1 mps 748 mmHg 95%
    01:00 +11°C° 0 mm 1 mps 748 mmHg 95%
    02:00 +10°C° 0 mm 1 mps 748 mmHg 95%
    03:00 +10°C° 0 mm 1 mps 748 mmHg 95%
    04:00 +10°C° 0 mm 1 mps 748 mmHg 95%
    05:00 +10°C° 0 mm 1 mps 748 mmHg 96%
    06:00 +10°C° 0 mm 1 mps 749 mmHg 94%
    07:00 +11°C° 0 mm 1 mps 749 mmHg 92%
    08:00 +12°C° 0 mm 1 mps 749 mmHg 91%
    09:00 +14°C° 0 mm 1 mps 749 mmHg 84%
    10:00 +15°C° 0 mm 1 mps 749 mmHg 78%
    11:00 +18°C° 0 mm 1 mps 750 mmHg 71%
    12:00 +19°C° 0.2 mm 1 mps 749 mmHg 70%
    13:00 +19°C° 0.2 mm 1 mps 749 mmHg 68%
    14:00 +19°C° 0.2 mm 2 mps 749 mmHg 67%
    15:00 +18°C° 0.2 mm 2 mps 749 mmHg 69%
    16:00 +19°C° 0.2 mm 1 mps 749 mmHg 71%
    17:00 +19°C° 0.2 mm 1 mps 748 mmHg 73%
    18:00 +17°C° 0 mm 2 mps 748 mmHg 77%
    19:00 +16°C° 0 mm 2 mps 749 mmHg 81%
    20:00 +14°C° 0 mm 2 mps 749 mmHg 86%
    21:00 +14°C° 0 mm 2 mps 749 mmHg 86%
    22:00 +13°C° 0 mm 3 mps 749 mmHg 87%
    23:00 +13°C° 0 mm 3 mps 749 mmHg 87%
    Show more